Find Starlink 5188

NORAD ID: 54096 Int'l Des: 2022-136 Owner: SPXS Country: US Constellation: starlink operational
LEOCIRCULAR

当前视图

正在加载3D地球...

About Starlink 5188

Starlink 5188 (NORAD 54096) is a starlink constellation satellite (v1.5) launched Oct 20, 2022 by SPXS of US. It operates in LEO, CIRCULAR orbit with a mass of 305.00 kg.

关于 Starlink 5188

正在加载描述...

即将过境

Passes for default location (London). Set your location on the main map for personalized predictions.

高度历史

Loading altitude history...

两行轨道根数

1 54096U 22136AX 26168.49106578 .00001000 00000-0 80908-4 0 9991
2 54096 53.1595 245.7856 0001194 85.2440 274.8688 15.08841978202052
Epoch: Jun 17, 2026 • Age: 20 hours

当前状态

高度 557.8 km
速度 7.58 km/s
星下点 -50.11°S, 98.8°E
发射日期 Oct 20, 2022
运行时间 3.6 years
类型 internet

技术详情

分类 Payload
质量 305.00 kg
干质量 290.00 kg
总质量 305.00 kg
长度 0.20 m
直径 2.80 m
跨度 9.00 m
形状 Box + pan
制造商 SPXS
平台类型 Starlink
阶段状态 In Orbit
所有者/国家 SPXS/US

Most Searched